User: anonymous   Login
Location: Unspecified
(0.0000°N, 0.0000°E)
Time: 04:13:26
(UTC+00:00)
Language:

TBA - TO BE ASSIGNED - Orbit

View from above orbital plane
View from above orbital plane
View from above satellite
View from above satellite

Ground track
Ground track

The orbit is defined by the following mean orbital elements,

1 67993U          26144.93512896 +.00000000 +00000-0 +34010-3 0 00008
2 67993  43.0055 338.3965 0001458 273.7212  86.3473 15.27591337    06
Epoch (UTC): 24 May 2026 22:26:35
Eccentricity: 0.0001458
inclination: 43.0055°
perigee height: 482 km
apogee height: 484 km
right ascension of ascending node: 338.3965°
argument of perigee: 273.7212°
revolutions per day: 15.27591337
mean anomaly at epoch: 86.3473°

The dashed part of the orbit path shows where the satellite is in the earth's shadow,  

DLR